St. Petersburg, Russia

12:20 AM MSK on June 25, 2018 (GMT +0300)
Pulkovo

Weather History for ULLI - October, 2017

Change the Weather History Date:

Thursday, October 12, 2017

  Actual Average Record
Temperature  
Mean Temperature 46 °F -  
Max Temperature 49 °F 47 °F 60 °F (2005)
Min Temperature 42 °F 36 °F 26 °F (2004)
Degree Days  
Heating Degree Days 20    
Moisture  
Dew Point 40 °F    
Average Humidity 81    
Maximum Humidity 93    
Minimum Humidity 56    
Precipitation  
Precipitation 0.00 in - - ()
Sea Level Pressure  
Sea Level Pressure 29.60 in    
Wind  
Wind Speed 7 mph ()    
Max Wind Speed 13 mph    
Max Gust Speed -    
Visibility 6.0 miles    
Events Rain    
Averages and records for this station are not official NWS values.
T = Trace of Precipitation, MM = Missing Value Source: Averaged Metar Reports

Daily Weather History Graph

Daily Weather History Graph

Search for Another Location

Airport or City:

Astronomy

Oct. 12, 2017 Rise Set
Actual Time 7:30 AM MSK 5:58 PM MSK
Civil Twilight 6:48 AM MSK 6:40 PM MSK
Nautical Twilight 6:00 AM MSK 7:28 PM MSK
Astronomical Twilight 5:11 AM MSK 8:17 PM MSK
Moon 10:48 PM MSK (10/12) 3:22 PM MSK (10/12)
Length of Visible Light 11h 51m
Length of Day
10h 27m
Waning Gibbous, 52% of the Moon is Illuminated
Oct 12
Waning Gibbous
Oct 12
Last Quarter
Oct 19
New
Oct 28
First Quarter
Nov 4
Full

Hourly Weather History & Observations

Time (MSK) Temp. Windchill Dew Point Humidity Pressure Visibility Wind Dir Wind Speed Gust Speed Precip Events Conditions
12:00 AM 46 °F - 42 °F 81% 29.53 in 2 mi SW 6.7 mph - - Rain Light Rain
12:00 AM 44.6 °F 42.3 °F 42.8 °F 93% 29.53 in 6.2 mi WSW 4.5 mph - N/A Rain Light Rain
12:30 AM 44.6 °F 39.8 °F 42.8 °F 93% 29.53 in 5.6 mi WSW 8.9 mph - N/A Rain Light Rain
1:00 AM 44.6 °F 40.8 °F 41.0 °F 87% 29.53 in 6.2 mi WSW 6.7 mph - N/A   Mostly Cloudy
1:30 AM 44.6 °F 40.8 °F 42.8 °F 93% 29.53 in 5.6 mi WSW 6.7 mph - N/A Rain Light Rain
2:00 AM 44.6 °F 39.8 °F 42.8 °F 93% 29.56 in 3.7 mi West 8.9 mph - N/A Rain Light Rain
2:30 AM 44.6 °F 38.9 °F 41.0 °F 87% 29.56 in 5.6 mi West 11.2 mph - N/A Rain Light Rain
3:00 AM 44.6 °F 38.9 °F 41.0 °F 87% 29.56 in 6.2 mi West 11.2 mph - N/A Rain Light Rain
3:30 AM 42.8 °F 36.7 °F 41.0 °F 93% 29.56 in 6.2 mi West 11.2 mph - N/A Rain Light Rain
4:00 AM 42.8 °F 36.7 °F 39.2 °F 87% 29.59 in 6.2 mi West 11.2 mph - N/A   Mostly Cloudy
4:30 AM 42.8 °F 36.7 °F 39.2 °F 87% 29.59 in 6.2 mi West 11.2 mph - N/A   Mostly Cloudy
5:00 AM 42.8 °F 37.6 °F 39.2 °F 87% 29.59 in 6.2 mi West 8.9 mph - N/A   Mostly Cloudy
5:30 AM 42.8 °F 37.6 °F 39.2 °F 87% 29.59 in 6.2 mi West 8.9 mph - N/A   Mostly Cloudy
6:00 AM 45 °F - 38 °F 70% 29.61 in 6 mi WNW 4.5 mph - -   Overcast
6:00 AM 42.8 °F 37.6 °F 39.2 °F 87% 29.59 in 6.2 mi West 8.9 mph - N/A   Mostly Cloudy
7:00 AM 42.8 °F 37.6 °F 39.2 °F 87% 29.59 in 6.2 mi West 8.9 mph - N/A   Mostly Cloudy
7:30 AM 42.8 °F 36.7 °F 39.2 °F 87% 29.62 in 6.2 mi West 11.2 mph - N/A   Overcast
8:00 AM 42.8 °F 35.9 °F 39.2 °F 87% 29.62 in 6.2 mi West 13.4 mph - N/A   Overcast
8:30 AM 44.6 °F 38.2 °F 39.2 °F 81% 29.62 in 6.2 mi West 13.4 mph - N/A   Overcast
9:00 AM 46 °F - 35 °F 56% 29.64 in 6 mi West 4.5 mph - -   Mostly Cloudy
9:00 AM 44.6 °F 38.2 °F 39.2 °F 81% 29.62 in 6.2 mi West 13.4 mph - N/A   Overcast
9:30 AM 44.6 °F 38.2 °F 39.2 °F 81% 29.62 in 6.2 mi West 13.4 mph - N/A   Mostly Cloudy
10:00 AM 44.6 °F 40.8 °F 39.2 °F 81% 29.65 in 6.2 mi West 6.7 mph - N/A   Mostly Cloudy
10:30 AM 44.6 °F 40.8 °F 39.2 °F 81% 29.65 in 6.2 mi West 6.7 mph - N/A   Mostly Cloudy
11:00 AM 46.4 °F 43.0 °F 39.2 °F 76% 29.65 in 6.2 mi WSW 6.7 mph - N/A   Mostly Cloudy
11:30 AM 46.4 °F 41.2 °F 39.2 °F 76% 29.65 in 6.2 mi West 11.2 mph - N/A   Mostly Cloudy
12:00 PM 47 °F - 39 °F 65% 29.66 in 6 mi WSW 4.5 mph - -   Mostly Cloudy
12:00 PM 46.4 °F 43.0 °F 39.2 °F 76% 29.65 in 6.2 mi West 6.7 mph - N/A   Mostly Cloudy
12:30 PM 46.4 °F 42.0 °F 39.2 °F 76% 29.65 in 6.2 mi WNW 8.9 mph - N/A   Mostly Cloudy
1:00 PM 48.2 °F - 39.2 °F 71% 29.65 in 6.2 mi WSW 11.2 mph - N/A   Mostly Cloudy
1:30 PM 48.2 °F - 39.2 °F 71% 29.65 in 6.2 mi West 8.9 mph - N/A   Mostly Cloudy
2:00 PM 48.2 °F - 39.2 °F 71% 29.65 in 6.2 mi WSW 8.9 mph - N/A   Mostly Cloudy
2:30 PM 48.2 °F - 39.2 °F 71% 29.65 in 6.2 mi SW 8.9 mph - N/A   Mostly Cloudy
3:00 PM 48 °F - 38 °F 58% 29.65 in 6 mi West 2.2 mph - -   Overcast
3:00 PM 48.2 °F - 41.0 °F 76% 29.65 in 6.2 mi SSW 6.7 mph - N/A   Mostly Cloudy
3:30 PM 48.2 °F - 41.0 °F 76% 29.62 in 6.2 mi SSW 6.7 mph - N/A   Mostly Cloudy
4:00 PM 48.2 °F - 41.0 °F 76% 29.62 in 6.2 mi SSW 4.5 mph - N/A   Mostly Cloudy
4:30 PM 48.2 °F - 41.0 °F 76% 29.62 in 6.2 mi South 4.5 mph - N/A   Mostly Cloudy
5:00 PM 48.2 °F - 39.2 °F 71% 29.62 in 6.2 mi SSW 6.7 mph - N/A   Mostly Cloudy
5:30 PM 46.4 °F 44.4 °F 39.2 °F 76% 29.62 in 6.2 mi SSE 4.5 mph - N/A   Mostly Cloudy
6:00 PM 48 °F - 39 °F 62% 29.62 in 6 mi SSW 4.5 mph - -   Mostly Cloudy
6:00 PM 44.6 °F 42.3 °F 39.2 °F 81% 29.62 in 6.2 mi SSE 4.5 mph - N/A   Mostly Cloudy
6:30 PM 44.6 °F 40.8 °F 39.2 °F 81% 29.59 in 6.2 mi South 6.7 mph - N/A   Mostly Cloudy
7:00 PM 44.6 °F 40.8 °F 41.0 °F 87% 29.59 in 6.2 mi SE 6.7 mph - N/A   Mostly Cloudy
7:30 PM 44.6 °F 39.8 °F 41.0 °F 87% 29.59 in 6.2 mi SE 8.9 mph - N/A   Mostly Cloudy
8:00 PM 44.6 °F 39.8 °F 39.2 °F 81% 29.59 in 6.2 mi SE 8.9 mph - N/A   Mostly Cloudy
8:30 PM 42.8 °F 40.2 °F 41.0 °F 93% 29.56 in 6.2 mi SE 4.5 mph - N/A   Scattered Clouds
9:00 PM 47 °F - 40 °F 71% 29.58 in 6 mi ESE 4.5 mph - -   Mostly Cloudy
9:00 PM 44.6 °F 40.8 °F 41.0 °F 87% 29.56 in 6.2 mi SE 6.7 mph - N/A   Scattered Clouds
9:30 PM 42.8 °F 38.7 °F 41.0 °F 93% 29.56 in 6.2 mi ESE 6.7 mph - N/A   Scattered Clouds
10:00 PM 44.6 °F 40.8 °F 41.0 °F 87% 29.53 in 6.2 mi ESE 6.7 mph - N/A Rain Light Rain
10:30 PM 44.6 °F 39.8 °F 41.0 °F 87% 29.53 in 6.2 mi East 8.9 mph - N/A Rain Light Rain
11:00 PM 44.6 °F 40.8 °F 42.8 °F 93% 29.50 in 6.2 mi East 6.7 mph - N/A Rain Light Rain Showers
11:30 PM 44.6 °F 39.8 °F 42.8 °F 93% 29.50 in 5.0 mi East 8.9 mph - N/A Rain Light Rain Showers